Location: Igri�s
(42.2144°N, 0.4320°W)
Time: 14:25:13
(UTC+00:00)

Cosmos 2242 Rocket - Pass Details

Date: 13 August 2020
Orbit: 618 x 652 km, 82.5° (Epoch: 24 September)

Event Time Altitude Azimuth Distance (km) Brightness Sun altitude
Rises 20:54:06 0° 355° (N) 2,917 7.7 -18.3°
Reaches altitude 10° 20:56:23 10° 360° (N) 2,001 6.7 -18.6°
Maximum altitude 21:00:45 58° 80° (E) 729 3.6 -19.2°
Enters shadow 21:01:44 46° 128° (SE) 840 3.7 -19.3°
